Location: Roswell
(33.3943°N, 104.5230°W)
Time: 15:05:53
(UTC+00:00)

Vanguard 2 Rocket - Pass Details

Date: 19 November 2024
Orbit: 554 x 3296 km, 32.9° (Epoch: 30 November)

Event Time Altitude Azimuth Distance (km) Brightness Sun altitude
Exits shadow 09:27:22 15° 141° (SE) 3,306 9.9 -51.1°
Maximum altitude 09:29:13 16° 128° (SE) 3,450 10.0 -50.8°
Drops below altitude 10° 09:35:19 10° 97° (E) 4,539 10.9 -49.5°
Sets 09:42:03 0° 80° (E) 6,173 11.8 -48.1°
